Regional Weather Roundup
Issued by NWS Charleston, SC

Current Version | Previous Version | Text Only | Print | Product List | Glossary Off
Versions: 1 2 3 4 5 6 7 8 9 10 11 12 13 14 15 16 17 18 19 20 21 22 23 24 25 26 27 28 29 30 31 32 33 34 35 36 37 38 39 40 41 42 43 44 45 46 47 48 49 50
000 ASUS42 KCHS 261212 RWRCHS Regional Weather Roundup National Weather Service Charleston SC 800 AM EDT MON OCT 26 2020 NOTE: "fair" indicates few or no clouds below 12,000 feet with no significant weather and/or obstructions to visibility. Not all stations are quality controlled. Use data with caution, especially dewpoint observations. SCZ027-030-031-034>040-042>050-261300- ...Southeast South Carolina... CITY SKY/WX TMP DP RH WIND PRES REMARKS N Charleston DRIZZLE 63 61 93 NE8 30.08R 6HR MIN TEMP: 63; 6HR MAX TEMP: 69; 6HR PCP: TRACE; Waterfront Prk N/A 65 64 97 N8 29.93R Mount Pleasant CLOUDY 63 63 100 CALM 30.08R Johns Island CLOUDY 64 64 100 N8 30.08R FOG Pinopolis N/A 61 61 100 NE9 30.00R Moncks Corner CLOUDY 59 59 100 N5 30.09S Summerville CLOUDY 63 61 94 NE7 30.08S Beaufort MCAS CLOUDY 68 66 93 NE8 30.07S 6HR MIN TEMP: 68; 6HR MAX TEMP: 72; Beaufort Arpt CLOUDY 68 66 94 NE9 30.07R FOG Hilton Head Is CLOUDY 70 68 94 NE13 30.07R Walterboro CLOUDY 63 61 94 NE3 30.10R Allendale CLOUDY 64 63 94 CALM 30.08R ...Southern Midlands and Pee Dee... CITY SKY/WX TMP DP RH WIND PRES REMARKS Georgetown CLOUDY 59 57 94 NW6 30.10R FOG Kingstree CLOUDY 55 54 94 NW3 30.11R Orangeburg CLOUDY 60 59 96 NE8 30.10R 6HR MIN TEMP: 60; 6HR MAX TEMP: 66; Barnwell CLOUDY 63 61 94 NE7 30.09R Aiken FOG 60 59 98 NE10 30.11R VSB 1/2 Manning CLOUDY 55 55 100 NE3 30.11R Columbia CLOUDY 59 55 87 N7 30.11R 6HR MIN TEMP: 59; 6HR MAX TEMP: 63; Sumter CLOUDY 57 54 88 NE8 30.11R 6HR MIN TEMP: 56; 6HR MAX TEMP: 62; 6HR PCP: TRACE; Florence CLOUDY 55 54 96 N10 30.12S FOG 6HR MIN TEMP: 55; 6HR MAX TEMP: 59; Myrtle Beach CLOUDY 58 58 100 NW13 30.09R N Myrtle Beach CLOUDY 58 58 100 VRB7 30.08R 6HR MIN TEMP: 58; 6HR MAX TEMP: 63; $$ GAZ063-065-086>088-099>101-113>116-118-119-134>141-150-261300- ...Southeast Georgia... CITY SKY/WX TMP DP RH WIND PRES REMARKS Savannah Arpt CLOUDY 72 69 90 NE7 30.07R 6HR MIN TEMP: 71; 6HR MAX TEMP: 73; Hunter AAF CLOUDY 71 69 93 CALM 30.04R 6HR MIN TEMP: 71; 6HR MAX TEMP: 72; Fort Stewart FOG 70 70 100 NE5 30.04R VSB 1 6HR MIN TEMP: 68; 6HR MAX TEMP: 70; Statesboro CLOUDY 67 65 94 CALM 30.07R FOG Sylvania CLOUDY 67 66 94 E3 30.08S Claxton CLOUDY 72 70 95 CALM 30.06R FOG Millen CLOUDY 66 64 94 E7 30.08R Metter CLOUDY 71 69 95 E6 30.06R Reidsville NOT AVBL ...CSRA, Central and far Southeast Georgia... CITY SKY/WX TMP DP RH WIND PRES REMARKS Thomson CLOUDY 61 N/A N/A E8 30.10R FOG Augusta-Bush CLOUDY 65 62 90 NE6 30.08R 6HR MIN TEMP: 65; 6HR MAX TEMP: 70; Augusta-Daniel CLOUDY 65 60 84 NE6 30.10R Swainsboro CLOUDY 70 70 100 NE6 30.08R Vidalia CLOUDY 72 68 88 E7 30.06R FOG Eastman CLOUDY 68 68 99 E3 30.08R Hazlehurst FOG 67 67 99 CALM 30.05R VSB<1/4 Alma CLOUDY 66 65 96 CALM 30.04R FOG 6HR MIN TEMP: 64; 6HR MAX TEMP: 66; Waycross CLOUDY 67 62 84 CALM 30.05R HAZE Jesup FOG 70 68 94 E6 30.06R VSB<1/4 Baxley FOG 64 64 100 CALM 30.05R VSB 1/4 Brunswick FOG 70 69 98 N6 30.05R VSB 1/2 Saint Simons FOG 71 71 100 N6 30.04R VSB 1/2 6HR MIN TEMP: 69; 6HR MAX TEMP: 71; $$ SCZ027-028-034-036>038-045-046-048>050-GAZ119-141-261300- ...Lake and Supplemental Coastal Observations... STATION/POSITION TIME TEMP WIND PRES WAVE SWELL AIR SEA DIR/SP/G HT/PER HT/PER/DIR (UTC) (F) (DEG/KT/KT) (MB) (FT/S) (FT/S/D) Winyah Bay 1045 61 350/ 5 1017.0 Lake Murray 1120 58 30/ 1/ 5 N/A Chrlstn Harbor 1124 66 75 350/ 7/ 12 1018.5 ACE Basin NERRS 1045 67 360/ 3 1018.0 Fort Pulaski 1124 72 75 30/ 8/ 10 1018.3 Sapelo Island 1100 72 30/ 4 1017.0 $$ ANZ835-935-AMZ111-154-330-350-352-354-370-450-454-472-261300- ...C-MAN and Buoy Observations... STATION/POSITION TIME TEMP WIND PRES WAVE SWELL AIR SEA DIR/SP/G HT/PER HT/PER/DIR (UTC) (F) (DEG/KT/KT) (MB) (FT/S) (FT/S/D) Buoy 41004 1150 72 81 10/ 16/ 17 1017.7R Buoy 41008 1150 75 76 40/ 12/ 14 1017.0R 3/13 2/ 80/13 Folly Beach CMAN 1100 66 350/ 9/ 11 1018.2R Capers Nearshore 1108 66 75 40/ 14/ 17 1017.6R Fripp Nearshore 1108 71 75 30/ 14/ 17 1017.0R STATION/POSITION TIME TEMP WIND PRES WAVE SWELL AIR SEA DIR/SP/G HT/PER HT/PER/DIR (UTC) (F) (DEG/KT/KT) (MB) (FT/S) (FT/S/D) 5E St. Marys GA 1130 76 77 N/A 3/13 2/ 90/13 Frying Pan Buoy 1150 66 81 10/ 12/ 17 1017.0R 4/12 3/ 80/12 Buoy 41025 1150 71 81 340/ 19/ 23 N/A 6/12 3/ 60/12 Cape Lookout NC 1200 62 340/ 14/ 17 1017.7R Buoy 41002 NOT AVBL Buoy 41010 1150 79 81 280/ 6/ 8 1015.8R 5/12 5/ 30/12 St Augustine FL 1200 78 80 20/ 12/ 12 1016.6R $$

USA.gov is the U.S. government's official web portal to all federal, state and local government web resources and services.